White Plains, CT

11:44 PM EDT on June 24, 2017 (GMT -0400)
Westchester County

Weather History for KHPN - February, 2012

Change the Weather History Date:

Friday, February 3, 2012

  Actual Average Record
Temperature  
Mean Temperature 34 °F -  
Max Temperature 42 °F 36 °F 63 °F (1991)
Min Temperature 27 °F 22 °F 8 °F (1976)
Degree Days  
Heating Degree Days 30    
Moisture  
Dew Point 18 °F    
Average Humidity 53    
Maximum Humidity 67    
Minimum Humidity 37    
Precipitation  
Precipitation 0.00 in - - ()
Sea Level Pressure  
Sea Level Pressure 30.36 in    
Wind  
Wind Speed 11 mph (WNW)    
Max Wind Speed 18 mph    
Max Gust Speed 24 mph    
Visibility 10 miles    
Events      
Averages and records for this station are not official NWS values.
T = Trace of Precipitation, MM = Missing Value Source: NWS Daily Summary

Daily Weather History Graph

Daily Weather History Graph

Search for Another Location

Airport or City:

Trip Planner

Search our weather history database for the weather conditions in past years. The results will help you decide how hot, cold, wet, or windy it might be!

Date:

Astronomy

Feb. 03, 2012 Rise Set
Actual Time 7:04 AM EST 5:13 PM EST
Civil Twilight 6:35 AM EST 5:42 PM EST
Nautical Twilight 6:02 AM EST 6:15 PM EST
Astronomical Twilight 5:30 AM EST 6:47 PM EST
Moon 1:11 PM EST (2/3) 3:38 AM EST (2/3)
Length of Visible Light 11h 07m
Length of Day
10h 09m
Waxing Gibbous, 81% of the Moon is Illuminated
Feb 3
Waxing Gibbous
Feb 7
Full
Feb 14
Last Quarter
Feb 21
New
Feb 29
First Quarter

Hourly Weather History & Observations

Time (EST) Temp. Windchill Dew Point Humidity Pressure Visibility Wind Dir Wind Speed Gust Speed Precip Events Conditions
12:56 AM 34.0 °F 24.6 °F 21.0 °F 59% 30.24 in 10.0 mi NW 13.8 mph 24.2 mph N/A   Mostly Cloudy
1:56 AM 32.0 °F 22.1 °F 19.0 °F 59% 30.26 in 10.0 mi NW 13.8 mph 21.9 mph N/A   Mostly Cloudy
2:56 AM 30.0 °F 20.5 °F 18.0 °F 61% 30.28 in 10.0 mi NW 11.5 mph - N/A   Clear
3:56 AM 28.9 °F 20.4 °F 18.0 °F 64% 30.31 in 10.0 mi NW 9.2 mph - N/A   Clear
4:56 AM 28.9 °F 18.6 °F 18.0 °F 64% 30.35 in 10.0 mi NW 12.7 mph - N/A   Clear
5:56 AM 27.0 °F 16.7 °F 17.1 °F 66% 30.38 in 10.0 mi NW 11.5 mph - N/A   Clear
6:56 AM 27.0 °F 18.0 °F 17.1 °F 66% 30.39 in 10.0 mi NW 9.2 mph - N/A   Clear
7:56 AM 28.0 °F 18.1 °F 17.1 °F 63% 30.42 in 10.0 mi NW 11.5 mph - N/A   Clear
8:56 AM 30.0 °F 19.5 °F 16.0 °F 56% 30.44 in 10.0 mi NW 13.8 mph - N/A   Clear
9:56 AM 33.1 °F 21.9 °F 16.0 °F 50% 30.45 in 10.0 mi NW 18.4 mph - N/A   Clear
10:56 AM 35.1 °F 25.9 °F 17.1 °F 48% 30.44 in 10.0 mi WNW 13.8 mph - N/A   Clear
11:56 AM 37.9 °F 30.0 °F 16.0 °F 41% 30.42 in 10.0 mi NW 12.7 mph - N/A   Clear
12:56 PM 39.0 °F 31.4 °F 16.0 °F 39% 30.39 in 10.0 mi WNW 12.7 mph 16.1 mph N/A   Clear
1:56 PM 41.0 °F 33.9 °F 17.1 °F 38% 30.36 in 10.0 mi WNW 12.7 mph - N/A   Clear
2:56 PM 42.1 °F 34.9 °F 17.1 °F 37% 30.35 in 10.0 mi WNW 13.8 mph - N/A   Clear
3:56 PM 42.1 °F 36.1 °F 18.0 °F 38% 30.35 in 10.0 mi WNW 10.4 mph - N/A   Clear
4:56 PM 39.9 °F 32.9 °F 19.0 °F 43% 30.37 in 10.0 mi WNW 11.5 mph - N/A   Clear
5:56 PM 39.0 °F 34.0 °F 17.1 °F 41% 30.39 in 10.0 mi West 6.9 mph - N/A   Scattered Clouds
6:56 PM 37.9 °F 32.7 °F 18.0 °F 45% 30.39 in 10.0 mi West 6.9 mph - N/A   Clear
7:56 PM 37.0 °F 31.6 °F 18.0 °F 46% 30.39 in 10.0 mi West 6.9 mph - N/A   Clear
8:56 PM 34.0 °F 29.8 °F 19.9 °F 56% 30.38 in 10.0 mi WNW 4.6 mph - N/A   Clear
9:56 PM 34.0 °F - 21.0 °F 59% 30.38 in 10.0 mi Calm Calm - N/A   Partly Cloudy
10:56 PM 30.9 °F - 21.0 °F 67% 30.34 in 10.0 mi Calm Calm - N/A   Mostly Cloudy
11:56 PM 36.0 °F 33.3 °F 19.9 °F 52% 30.34 in 10.0 mi WSW 3.5 mph - N/A   Mostly Cloudy